Weather History for Weslaco, TX

Change the Weather History Date:

Wednesday, February 13, 2013

  Actual Average (KMFE) Record (KMFE)
Temperature  
Mean Temperature 61 °F 64 °F  
Max Temperature 69 °F 75 °F 92 °F (2009)
Min Temperature 53 °F 54 °F 28 °F (1895)
Degree Days  
Heating Degree Days 4 4  
Month to date heating degree days 61  
Since 1 July heating degree days 488  
Cooling Degree Days 0 3  
Month to date cooling degree days 37  
Year to date cooling degree days 99  
Growing Degree Days 11 (Base 50)    
Moisture  
Dew Point 41 °F    
Average Humidity 49    
Maximum Humidity 74    
Minimum Humidity 22    
Precipitation  
Precipitation 0.00 in 0.05 in 1.20 in (1980)
Month to date precipitation 0.56  
Year to date precipitation 1.61  
Sea Level Pressure  
Sea Level Pressure 30.06 in    
Wind  
Wind Speed 7 mph (NNE)    
Max Wind Speed 14 mph    
Max Gust Speed 22 mph    
Visibility 10 miles    
Events      
T = Trace of Precipitation, MM = Missing Value Source: NWS Daily Summary

Daily Weather History Graph

Daily Weather History Graph

Search for Another Location

Airport:

Trip Planner

Search our weather history database for the weather conditions in past years. The results will help you decide how hot, cold, wet, or windy it might be!

Date:

Astronomy

Feb. 13, 2013 Rise Set
Actual Time 7:08 AM CST 6:23 PM CST
Civil Twilight 6:45 AM CST 6:47 PM CST
Nautical Twilight 6:17 AM CST 7:14 PM CST
Astronomical Twilight 5:50 AM CST 7:41 PM CST
Moon 9:05 AM CST (2/13) 9:57 PM CST (2/13)
Length of Visible Light 12h 02m
Length of Day
11h 15m
Waxing Crescent, 14% of the Moon is Illuminated
Feb 13
Waxing Crescent
Feb 17
First Quarter
Feb 25
Full
Mar 4
Last Quarter
Mar 11
New

Hourly Weather History & Observations

Time (CST) Temp. Dew Point Humidity Pressure Visibility Wind Dir Wind Speed Gust Speed Precip Events Conditions
12:15 AM 63.0 °F 52.3 °F 68% 29.98 in 10.0 mi North 3.5 mph - N/A   Clear
12:35 AM 62.8 °F 52.3 °F 69% 29.97 in 10.0 mi NNE 3.5 mph - N/A   Clear
12:55 AM 63.3 °F 52.2 °F 67% 29.95 in 10.0 mi NNE 5.8 mph - N/A   Clear
1:15 AM 63.3 °F 52.2 °F 67% 30.00 in 10.0 mi NW 4.6 mph - N/A   Scattered Clouds
1:35 AM 63.5 °F 52.0 °F 66% 29.97 in 10.0 mi Calm Calm - N/A   Scattered Clouds
2:15 AM 62.6 °F 52.2 °F 69% 29.97 in 10.0 mi Calm Calm - N/A   Clear
2:35 AM 62.6 °F 52.5 °F 70% 29.96 in 10.0 mi NNE 3.5 mph - N/A   Scattered Clouds
2:55 AM 62.2 °F 52.7 °F 71% 29.98 in 10.0 mi Calm Calm - N/A   Overcast
3:15 AM 61.7 °F 53.4 °F 74% 29.98 in 10.0 mi NNW 4.6 mph - N/A   Overcast
3:55 AM 62.6 °F 52.9 °F 70% 29.99 in 10.0 mi NNW 5.8 mph - N/A   Clear
4:15 AM 62.1 °F 52.7 °F 71% 29.98 in 10.0 mi NNW 8.1 mph - N/A   Clear
4:35 AM 62.1 °F 52.5 °F 71% 30.00 in 10.0 mi NNW 6.9 mph - N/A   Mostly Cloudy
4:55 AM 62.6 °F 52.5 °F 70% 30.00 in 10.0 mi NNW 9.2 mph - N/A   Overcast
5:35 AM 63.0 °F 50.2 °F 63% 30.01 in 10.0 mi North 10.4 mph 16.1 mph N/A   Overcast
5:55 AM 62.8 °F 44.2 °F 51% 30.02 in 10.0 mi North 12.7 mph 17.3 mph N/A   Overcast
6:15 AM 62.6 °F 40.8 °F 45% 30.03 in 10.0 mi North 13.8 mph 19.6 mph N/A   Overcast
6:35 AM 61.7 °F 41.0 °F 47% 30.05 in 10.0 mi North 11.5 mph 20.7 mph N/A   Overcast
6:55 AM 60.8 °F 44.6 °F 55% 30.06 in 10.0 mi North 12.7 mph - N/A   Overcast
7:15 AM 60.4 °F 47.1 °F 61% 30.07 in 10.0 mi North 12.7 mph 21.9 mph N/A   Overcast
7:35 AM 60.3 °F 46.4 °F 60% 30.08 in 10.0 mi NNE 11.5 mph 18.4 mph N/A   Overcast
7:55 AM 60.3 °F 46.4 °F 60% 30.09 in 10.0 mi North 10.4 mph 18.4 mph N/A   Overcast
8:15 AM 60.4 °F 46.4 °F 60% 30.10 in 10.0 mi North 12.7 mph 17.3 mph N/A   Overcast
8:35 AM 60.6 °F 46.6 °F 60% 30.11 in 10.0 mi North 10.4 mph 18.4 mph N/A   Overcast
8:55 AM 60.8 °F 46.2 °F 59% 30.12 in 10.0 mi North 9.2 mph - N/A   Overcast
9:15 AM 61.7 °F 42.4 °F 49% 30.14 in 10.0 mi North 11.5 mph 16.1 mph N/A   Overcast
9:35 AM 62.1 °F 41.0 °F 46% 30.14 in 10.0 mi NNE 11.5 mph - N/A   Overcast
9:55 AM 63.0 °F 40.1 °F 43% 30.15 in 10.0 mi North 8.1 mph 16.1 mph N/A   Overcast
10:15 AM 63.1 °F 37.6 °F 39% 30.15 in 10.0 mi North 9.2 mph - N/A   Overcast
10:35 AM 64.6 °F 36.3 °F 35% 30.15 in 10.0 mi NNW 10.4 mph - N/A   Overcast
10:55 AM 64.4 °F 35.2 °F 34% 30.16 in 10.0 mi North 11.5 mph 17.3 mph N/A   Overcast
11:35 AM 65.8 °F 33.1 °F 30% 30.15 in 10.0 mi NNE 10.4 mph - N/A   Overcast
11:55 AM 67.1 °F 33.3 °F 29% 30.13 in 10.0 mi NNE 9.2 mph 17.3 mph N/A   Overcast
12:15 PM 68.4 °F 33.4 °F 27% 30.12 in 10.0 mi NNE 13.8 mph - N/A   Overcast
12:35 PM 67.3 °F 32.2 °F 27% 30.12 in 10.0 mi North 11.5 mph 16.1 mph N/A   Overcast
12:55 PM 67.1 °F 32.0 °F 27% 30.10 in 10.0 mi North 10.4 mph - N/A   Overcast
1:15 PM 68.0 °F 32.0 °F 26% 30.09 in 10.0 mi North 11.5 mph 17.3 mph N/A   Overcast
1:35 PM 68.0 °F 31.8 °F 26% 30.07 in 10.0 mi NNE 11.5 mph - N/A   Scattered Clouds
1:55 PM 66.9 °F 30.6 °F 26% 30.06 in 10.0 mi NNE 8.1 mph 16.1 mph N/A   Clear
2:15 PM 66.7 °F 30.9 °F 26% 30.05 in 10.0 mi NNW 10.4 mph - N/A   Scattered Clouds
2:35 PM 67.1 °F 29.7 °F 25% 30.05 in 10.0 mi North 10.4 mph - N/A   Scattered Clouds
2:55 PM 67.1 °F 29.8 °F 25% 30.04 in 10.0 mi NNE 10.4 mph - N/A   Scattered Clouds
3:15 PM 67.8 °F 28.0 °F 23% 30.03 in 10.0 mi North 9.2 mph 16.1 mph N/A   Clear
3:55 PM 69.1 °F 30.0 °F 23% 30.01 in 10.0 mi NE 8.1 mph - N/A   Clear
4:15 PM 69.3 °F 29.7 °F 23% 30.01 in 10.0 mi NNE 6.9 mph - N/A   Clear
4:35 PM 69.4 °F 29.3 °F 22% 30.02 in 10.0 mi NE 8.1 mph - N/A   Clear
4:55 PM 68.4 °F 29.3 °F 23% 30.01 in 10.0 mi NE 10.4 mph 17.3 mph N/A   Clear
5:15 PM 67.5 °F 28.9 °F 24% 30.01 in 10.0 mi NNE 10.4 mph - N/A   Clear
5:35 PM 67.1 °F 28.2 °F 23% 30.01 in 10.0 mi NE 8.1 mph - N/A   Clear
5:55 PM 65.3 °F 27.1 °F 24% 30.01 in 10.0 mi NE 6.9 mph - N/A   Clear
6:15 PM 61.9 °F 36.7 °F 39% 30.02 in 10.0 mi East 9.2 mph - N/A   Clear
6:35 PM 60.8 °F 37.9 °F 43% 30.03 in 10.0 mi East 5.8 mph - N/A   Clear
7:15 PM 59.0 °F 40.3 °F 50% 30.04 in 10.0 mi East 5.8 mph - N/A   Clear
7:35 PM 58.8 °F 41.0 °F 52% 30.04 in 10.0 mi East 10.4 mph - N/A   Clear
7:55 PM 57.7 °F 41.9 °F 56% 30.06 in 10.0 mi East 5.8 mph - N/A   Clear
8:15 PM 57.4 °F 42.1 °F 57% 30.06 in 10.0 mi East 5.8 mph - N/A   Clear
8:35 PM 56.7 °F 41.9 °F 58% 30.09 in 10.0 mi SE 4.6 mph - N/A   Clear
8:55 PM 56.3 °F 41.5 °F 58% 30.08 in 10.0 mi East 4.6 mph - N/A   Clear
9:15 PM 55.4 °F 41.7 °F 60% 30.07 in 10.0 mi Calm Calm - N/A   Clear
9:35 PM 54.7 °F 41.9 °F 62% 30.09 in 10.0 mi Calm Calm - N/A   Clear
9:55 PM 54.5 °F 41.9 °F 62% 30.10 in 10.0 mi Calm Calm - N/A   Clear
10:15 PM 54.5 °F 41.9 °F 62% 30.10 in 10.0 mi Calm Calm - N/A   Clear
10:35 PM 54.5 °F 41.9 °F 62% 30.11 in 10.0 mi East 3.5 mph - N/A   Clear
10:55 PM 54.5 °F 42.3 °F 63% 30.11 in 10.0 mi Calm Calm - N/A   Clear
11:15 PM 53.2 °F 42.3 °F 66% 30.11 in 10.0 mi Calm Calm - N/A   Clear
11:35 PM 53.4 °F 42.4 °F 66% 30.10 in 10.0 mi Calm Calm - N/A   Clear
11:55 PM 53.6 °F 42.8 °F 67% 30.12 in 10.0 mi SSE 3.5 mph - N/A   Clear